Owatonna, MN

11:39 PM CDT on August 21, 2017 (GMT -0500)
Owatonna Degner Regional

Weather History for KOWA - April, 2014

Change the Weather History Date:

Monday, April 7, 2014

  Actual Average Record
Temperature  
Mean Temperature 49 °F -  
Max Temperature 59 °F 55 °F 89 °F (1991)
Min Temperature 39 °F 32 °F 15 °F (1990)
Degree Days  
Heating Degree Days 16    
Moisture  
Dew Point 39 °F    
Average Humidity 73    
Maximum Humidity 93    
Minimum Humidity 45    
Precipitation  
Precipitation 0.02 in - - ()
Sea Level Pressure  
Sea Level Pressure 29.79 in    
Wind  
Wind Speed 6 mph (WNW)    
Max Wind Speed 20 mph    
Max Gust Speed 26 mph    
Visibility 8 miles    
Events Rain    
Averages and records for this station are not official NWS values.
T = Trace of Precipitation, MM = Missing Value Source: NWS Daily Summary

Daily Weather History Graph

Daily Weather History Graph

Search for Another Location

Airport or City:

Trip Planner

Search our weather history database for the weather conditions in past years. The results will help you decide how hot, cold, wet, or windy it might be!

Date:

Astronomy

Apr. 07, 2014 Rise Set
Actual Time 6:43 AM CDT 7:47 PM CDT
Civil Twilight 6:13 AM CDT 8:17 PM CDT
Nautical Twilight 5:38 AM CDT 8:52 PM CDT
Astronomical Twilight 5:01 AM CDT 9:29 PM CDT
Moon 12:34 PM CDT (4/7) 2:30 AM CDT (4/7)
Length of Visible Light 14h 03m
Length of Day
13h 04m
First Quarter, 53% of the Moon is Illuminated
Apr 7
First Quarter
Apr 15
Full
Apr 22
Last Quarter
Apr 29
New
May 6
First Quarter

Hourly Weather History & Observations

Time (CDT) Temp. Windchill Dew Point Humidity Pressure Visibility Wind Dir Wind Speed Gust Speed Precip Events Conditions
12:15 AM 46.4 °F 43.5 °F 42.8 °F 87% 29.86 in 10.0 mi South 5.8 mph - N/A   Clear
12:34 AM 46.4 °F 42.9 °F 42.8 °F 87% 29.86 in 10.0 mi SSE 6.9 mph - N/A   Clear
12:55 AM 46.4 °F 42.9 °F 42.8 °F 87% 29.86 in 10.0 mi South 6.9 mph - N/A   Clear
1:14 AM 44.6 °F 40.7 °F 42.8 °F 93% 29.85 in 10.0 mi SSE 6.9 mph - N/A   Clear
1:34 AM 44.6 °F 40.7 °F 41.0 °F 87% 29.85 in 7.0 mi SSE 6.9 mph - N/A   Clear
1:54 AM 44.6 °F 40.2 °F 42.8 °F 93% 29.84 in 10.0 mi South 8.1 mph - N/A   Clear
2:14 AM 44.6 °F 41.4 °F 41.0 °F 87% 29.83 in 10.0 mi South 5.8 mph - N/A   Clear
2:35 AM 44.6 °F 41.4 °F 41.0 °F 87% 29.82 in 10.0 mi South 5.8 mph - N/A   Clear
2:54 AM 44.6 °F 41.4 °F 41.0 °F 87% 29.81 in 7.0 mi South 5.8 mph - N/A   Scattered Clouds
3:15 AM 44.6 °F 42.2 °F 39.2 °F 81% 29.80 in 10.0 mi South 4.6 mph - N/A   Scattered Clouds
3:35 AM 39.2 °F - 37.4 °F 93% 29.80 in 5.0 mi Calm Calm - N/A   Scattered Clouds
3:54 AM 42.8 °F - 39.2 °F 87% 29.79 in 7.0 mi Calm Calm - N/A   Scattered Clouds
4:16 AM 41.0 °F - 37.4 °F 87% 29.79 in 7.0 mi Calm Calm - N/A   Scattered Clouds
4:35 AM 41.0 °F 39.0 °F 37.4 °F 87% 29.78 in 5.0 mi ESE 3.5 mph - N/A   Mostly Cloudy
4:54 AM 42.8 °F - 39.2 °F 87% 29.78 in 7.0 mi Calm Calm - N/A   Mostly Cloudy
5:15 AM 42.8 °F - 39.2 °F 87% 29.78 in 7.0 mi Calm Calm - N/A   Mostly Cloudy
5:34 AM 42.8 °F 41.1 °F 39.2 °F 87% 29.78 in 7.0 mi ESE 3.5 mph - N/A   Scattered Clouds
5:55 AM 42.8 °F 41.1 °F 39.2 °F 87% 29.79 in 7.0 mi SSE 3.5 mph - N/A   Light Drizzle
6:15 AM 42.8 °F 39.3 °F 41.0 °F 93% 29.80 in 5.0 mi SSE 5.8 mph - N/A Rain Rain
6:35 AM 42.8 °F 41.1 °F 41.0 °F 93% 29.80 in 5.0 mi SSE 3.5 mph - N/A Rain Light Rain
6:54 AM 42.8 °F 41.1 °F 41.0 °F 93% 29.81 in 5.0 mi South 3.5 mph - N/A   Drizzle
7:15 AM 42.8 °F - 39.2 °F 87% 29.81 in 4.0 mi Calm Calm - 0.01 in   Light Drizzle
7:34 AM 42.8 °F - 41.0 °F 93% 29.81 in 4.0 mi Calm Calm - 0.01 in Rain Light Rain
7:56 AM 42.8 °F - 41.0 °F 93% 29.81 in 4.0 mi Calm Calm - N/A Rain Light Rain
8:14 AM 42.8 °F - 41.0 °F 93% 29.81 in 3.0 mi Calm Calm - 0.01 in   Drizzle
8:35 AM 44.6 °F - 42.8 °F 93% 29.81 in 3.0 mi Calm Calm - 0.01 in   Mostly Cloudy
8:54 AM 46.4 °F - 42.8 °F 87% 29.80 in 4.0 mi Calm Calm - 0.01 in   Mostly Cloudy
9:14 AM 46.4 °F 45.2 °F 42.8 °F 87% 29.80 in 4.0 mi SW 3.5 mph - N/A   Mostly Cloudy
9:34 AM 46.4 °F - 42.8 °F 87% 29.81 in 5.0 mi Calm Calm - N/A   Mostly Cloudy
9:54 AM 48.2 °F - 42.8 °F 82% 29.81 in 7.0 mi WSW 6.9 mph - N/A   Scattered Clouds
10:14 AM 48.2 °F - 44.6 °F 87% 29.81 in 7.0 mi Calm Calm - N/A   Scattered Clouds
10:35 AM 51.8 °F - 44.6 °F 76% 29.80 in 7.0 mi Calm Calm - N/A   Scattered Clouds
10:54 AM 51.8 °F - 44.6 °F 76% 29.80 in 10.0 mi West 3.5 mph - N/A   Scattered Clouds
11:15 AM 51.8 °F - 44.6 °F 76% 29.80 in 10.0 mi NW 3.5 mph - N/A   Clear
11:34 AM 53.6 °F - 44.6 °F 72% 29.80 in 10.0 mi NW 5.8 mph - N/A   Clear
11:54 AM 53.6 °F - 44.6 °F 72% 29.79 in 10.0 mi NW 3.5 mph - N/A   Clear
12:14 PM 55.4 °F - 42.8 °F 63% 29.79 in 10.0 mi WNW 4.6 mph - N/A   Clear
12:34 PM 55.4 °F - 41.0 °F 58% 29.79 in 10.0 mi NW 5.8 mph - N/A   Clear
12:55 PM 55.4 °F - 41.0 °F 58% 29.78 in 10.0 mi North 4.6 mph - N/A   Scattered Clouds
1:14 PM 55.4 °F - 41.0 °F 58% 29.77 in 10.0 mi NNW 9.2 mph - N/A   Scattered Clouds
1:34 PM 57.2 °F - 41.0 °F 55% 29.77 in 10.0 mi WNW 9.2 mph - N/A   Scattered Clouds
1:55 PM 57.2 °F - 41.0 °F 55% 29.76 in 10.0 mi NW 10.4 mph 26.5 mph N/A   Scattered Clouds
2:14 PM 57.2 °F - 39.2 °F 51% 29.76 in 10.0 mi NW 8.1 mph 17.3 mph N/A   Scattered Clouds
2:35 PM 57.2 °F - 42.8 °F 59% 29.75 in 10.0 mi NW 13.8 mph - N/A   Mostly Cloudy
3:14 PM 59.0 °F - 37.4 °F 45% 29.75 in 10.0 mi NNW 17.3 mph 23.0 mph N/A   Scattered Clouds
3:35 PM 57.2 °F - 37.4 °F 48% 29.75 in 10.0 mi NNW 18.4 mph 25.3 mph N/A   Clear
3:55 PM 57.2 °F - 37.4 °F 48% 29.75 in 10.0 mi NW 18.4 mph 24.2 mph N/A   Clear
4:14 PM 57.2 °F - 37.4 °F 48% 29.75 in 10.0 mi NNW 19.6 mph - N/A   Scattered Clouds
4:35 PM 57.2 °F - 37.4 °F 48% 29.75 in 10.0 mi NNW 16.1 mph - N/A   Scattered Clouds
4:54 PM 57.2 °F - 37.4 °F 48% 29.75 in 10.0 mi NNW 18.4 mph - N/A   Clear
5:14 PM 55.4 °F - 39.2 °F 54% 29.75 in 10.0 mi NNW 11.5 mph - N/A   Scattered Clouds
5:35 PM 57.2 °F - 37.4 °F 48% 29.75 in 10.0 mi NW 18.4 mph - N/A   Clear
5:54 PM 55.4 °F - 35.6 °F 47% 29.76 in 10.0 mi NNW 17.3 mph 25.3 mph N/A   Scattered Clouds
6:14 PM 55.4 °F - 35.6 °F 47% 29.76 in 10.0 mi NNW 16.1 mph - N/A   Clear
6:34 PM 53.6 °F - 35.6 °F 51% 29.76 in 10.0 mi NNW 15.0 mph - N/A   Clear
6:55 PM 55.4 °F - 37.4 °F 51% 29.76 in 10.0 mi NNW 16.1 mph - N/A   Clear
7:15 PM 53.6 °F - 37.4 °F 54% 29.77 in 10.0 mi NW 9.2 mph - N/A   Mostly Cloudy
7:34 PM 50.0 °F - 35.6 °F 58% 29.77 in 10.0 mi NW 10.4 mph - N/A   Scattered Clouds
7:55 PM 48.2 °F - 35.6 °F 62% 29.77 in 10.0 mi NW 9.2 mph - N/A   Clear
8:15 PM 46.4 °F 42.9 °F 35.6 °F 66% 29.78 in 10.0 mi NW 6.9 mph - N/A   Clear
8:35 PM 44.6 °F 41.4 °F 35.6 °F 71% 29.79 in 10.0 mi NW 5.8 mph - N/A   Clear
8:55 PM 42.8 °F 41.1 °F 33.8 °F 70% 29.80 in 10.0 mi NNW 3.5 mph - N/A   Clear
9:14 PM 42.8 °F - 35.6 °F 76% 29.80 in 10.0 mi Calm Calm - N/A   Clear
9:35 PM 44.6 °F - 35.6 °F 71% 29.80 in 10.0 mi Calm Calm - N/A   Clear
9:55 PM 42.8 °F - 33.8 °F 70% 29.81 in 10.0 mi Calm Calm - N/A   Scattered Clouds
10:14 PM 42.8 °F - 33.8 °F 70% 29.81 in 10.0 mi Calm Calm - N/A   Scattered Clouds
10:34 PM 41.0 °F 34.7 °F 33.8 °F 76% 29.81 in 10.0 mi WNW 10.4 mph - N/A   Clear
10:54 PM 41.0 °F 34.7 °F 33.8 °F 76% 29.81 in 10.0 mi WNW 10.4 mph - N/A   Clear
11:14 PM 41.0 °F 35.8 °F 33.8 °F 76% 29.81 in 10.0 mi WNW 8.1 mph - N/A   Clear
11:34 PM 39.2 °F 33.0 °F 33.8 °F 81% 29.81 in 10.0 mi WNW 9.2 mph - N/A   Clear
11:56 PM 39.2 °F 33.0 °F 33.8 °F 81% 29.82 in 10.0 mi WNW 9.2 mph - N/A   Clear